Location: McFarlands Corners
(41.4117°N, 81.3382°W)
Time: 18:20:17
(UTC+00:00)

Vanguard 1 Rocket - Pass Details

Date: 23 February 2026
Orbit: 653 x 4214 km, 34.3° (Epoch: 8 March)

Event Time Altitude Azimuth Distance (km) Brightness Sun altitude
Rises 22:24:58 0° 277° (W) 5,299 12.6 7.1°
Reaches altitude 10° 22:27:59 10° 271° (W) 4,677 12.7 6.6°
Maximum altitude 22:41:27 47° 203° (SSW) 3,872 11.1 4.2°
Drops below altitude 10° 23:03:36 10° 139° (SE) 7,344 11.7 0.2°
Sets 23:10:02 0° 135° (SE) 8,448 12.0 -1.0°
